GW4132 Weather Reports


Display with metric or nautical units.
time (UTC)temp
F
wind
direction
speed
MPH
gust
MPH
rain 1hr
in
rain 24hr
in
rain mn
in
humidity
%
barometer
mb
20260902011539 53 80 1.0 2.0 0.00 0.00 0.00 89 1015.0
20260902010047 53 100 1.0 3.0 0.00 0.00 0.00 88 1014.9
20260902004548 53 23 0.0 3.0 0.00 0.00 0.00 88 1015.0
20260902003054 53 65 1.0 5.0 0.00 0.00 0.00 88 1015.1
20260902001552 54 12 1.0 4.0 0.00 0.00 0.00 89 1015.2
20260902000112 54 56 0.0 4.0 0.00 0.00 0.00 89 1015.0
20260901234544 54 84 1.0 4.0 0.00 0.00 0.00 88 1014.9
20260901233044 55 63 2.0 5.0 0.00 0.00 0.00 87 1014.8
20260901231555 56 88 1.0 5.0 0.00 0.00 0.00 85 1014.6
20260901230059 57 16 2.0 8.0 0.00 0.00 0.00 83 1014.7
20260901224549 58 82 3.0 8.0 0.00 0.00 0.00 80 1014.9
20260901223113 59 117 2.0 7.0 0.00 0.00 0.00 80 1014.6
20260901221552 62 91 2.0 5.0 0.00 0.00 0.00 75 1014.7
20260901220114 61 147 2.0 5.0 0.00 0.00 0.00 78 1014.6
20260901214545 62 79 1.0 8.0 0.00 0.00 0.00 77 1014.6
20260901213115 61 65 1.0 9.0 0.00 0.00 0.00 78 1014.5
20260901211553 61 57 1.0 5.0 0.00 0.00 0.00 77 1014.7
20260901210106 61 94 2.0 6.0 0.00 0.00 0.00 78 1014.8
20260901204604 61 257 1.0 6.0 0.00 0.00 0.00 78 1014.9
20260901203102 62 108 2.0 7.0 0.00 0.00 0.00 76 1014.9
20260901201558 62 51 2.0 9.0 0.00 0.00 0.00 78 1015.0
20260901200058 61 192 2.0 7.0 0.00 0.00 0.00 78 1014.6
20260901194555 62 57 2.0 8.0 0.00 0.00 0.00 75 1014.6
20260901193106 64 128 3.0 7.0 0.00 0.00 0.00 72 1014.7
20260901191601 66 105 2.0 4.0 0.00 0.00 0.00 72 1014.8
20260901184558 65 175 2.0 5.0 0.00 0.00 0.00 72 1014.8
20260901183104 63 156 0.0 3.0 0.00 0.00 0.00 71 1014.8
20260901181602 63 197 0.0 3.0 0.00 0.00 0.00 72 1014.8
20260901174544 64 246 1.0 4.0 0.00 0.00 0.00 70 1014.6
20260901173052 63 102 1.0 4.0 0.00 0.00 0.00 70 1014.6
20260901171545 62 250 0.0 3.0 0.00 0.00 0.00 71 1014.9
20260901170054 60 171 0.0 3.0 0.00 0.00 0.00 77 1014.8
20260901164544 58 189 0.0 2.0 0.00 0.00 0.00 81 1014.8
20260901163043 57 220 0.0 1.0 0.00 0.00 0.00 84 1015.0
20260901161552 56 219 0.0 1.0 0.00 0.00 0.00 86 1015.0
20260901160044 54 221 0.0 2.0 0.00 0.00 0.00 91 1015.2
20260901154545 52 35 0.0 1.0 0.00 0.00 0.00 95 1015.3
20260901153040 51 35 0.0 0.0 0.00 0.00 0.00 95 1015.6
20260901151543 50 35 0.0 0.0 0.00 0.00 0.00 94 1015.4
20260901150042 49 35 0.0 1.0 0.00 0.00 0.00 95 1015.4
20260901144541 48 35 0.0 1.0 0.00 0.00 0.00 93 1015.2
20260901143049 48 35 0.0 1.0 0.00 0.00 0.00 94 1015.3
20260901141550 48 35 0.0 2.0 0.00 0.00 0.00 92 1015.4
20260901140051 47 35 0.0 1.0 0.00 0.00 0.00 91 1015.3
20260901134604 47 35 0.0 1.0 0.00 0.00 0.00 91 1015.3
20260901133049 47 35 0.0 1.0 0.00 0.00 0.00 89 1015.2
20260901131551 48 35 0.0 1.0 0.00 0.00 0.00 89 1015.0
20260901130046 48 44 0.0 2.0 0.00 0.00 0.00 88 1015.0
20260901124544 48 44 0.0 2.0 0.00 0.00 0.00 87 1014.9
20260901123040 48 51 0.0 2.0 0.00 0.00 0.00 86 1014.9
20260901121541 48 9 0.0 2.0 0.00 0.00 0.00 86 1014.9
20260901120053 49 9 0.0 1.0 0.00 0.00 0.00 86 1014.9
20260901114543 49 9 0.0 1.0 0.00 0.00 0.00 84 1014.9
20260901113048 49 9 0.0 1.0 0.00 0.00 0.00 85 1014.9
20260901111548 49 9 0.0 1.0 0.00 0.00 0.00 86 1014.9
20260901110049 50 9 0.0 1.0 0.00 0.00 0.00 86 1014.9
20260901104542 50 9 0.0 2.0 0.00 0.00 0.00 84 1015.1
20260901103043 51 9 0.0 1.0 0.00 0.00 0.00 82 1015.0
20260901101538 51 9 1.0 2.0 0.00 0.00 0.00 80 1015.2
20260901100044 52 9 0.0 2.0 0.00 0.00 0.00 81 1015.1
20260901094550 51 22 1.0 2.0 0.00 0.00 0.00 82 1015.2
20260901093045 51 5 0.0 3.0 0.00 0.00 0.00 81 1015.2
20260901091550 51 352 1.0 3.0 0.00 0.00 0.00 80 1015.2
20260901090049 52 352 0.0 2.0 0.00 0.00 0.00 80 1015.3
20260901084542 52 351 0.0 2.0 0.00 0.00 0.00 81 1015.3
20260901083046 52 350 0.0 2.0 0.00 0.00 0.00 80 1015.4
20260901081558 52 351 0.0 2.0 0.00 0.00 0.00 80 1015.5
20260901080046 52 26 1.0 2.0 0.00 0.00 0.00 81 1015.5
20260901074546 52 22 0.0 2.0 0.00 0.00 0.00 81 1015.5
20260901073044 52 22 0.0 1.0 0.00 0.00 0.00 81 1015.3
20260901071550 53 22 0.0 2.0 0.00 0.00 0.00 81 1015.2
20260901070044 53 22 0.0 2.0 0.00 0.00 0.00 80 1015.3
20260901064550 53 22 1.0 2.0 0.00 0.00 0.00 80 1015.4
20260901063048 53 28 0.0 2.0 0.00 0.00 0.00 82 1015.5
20260901061546 53 24 0.0 2.0 0.00 0.00 0.00 82 1015.6
20260901060046 53 24 0.0 2.0 0.00 0.00 0.00 83 1015.7
20260901054549 53 24 0.0 2.0 0.00 0.00 0.00 85 1015.8
20260901053112 53 24 0.0 2.0 0.00 0.00 0.00 86 1015.8
20260901051602 53 23 0.0 1.0 0.00 0.00 0.00 87 1015.9
20260901050054 53 360 1.0 2.0 0.00 0.00 0.00 86 1016.0
20260901044600 53 352 0.0 2.0 0.00 0.00 0.00 86 1016.1
20260901043045 54 322 0.0 1.0 0.00 0.00 0.00 86 1016.1
20260901041547 54 322 0.0 2.0 0.00 0.00 0.00 84 1016.3
20260901040110 55 319 0.0 1.0 0.00 0.00 0.00 84 1015.9
20260901034605 56 315 0.0 2.0 0.00 0.00 0.00 84 1015.8
20260901033046 56 315 0.0 1.0 0.00 0.00 0.00 81 1015.8
20260901031554 57 291 0.0 1.0 0.00 0.00 0.00 79 1015.5
20260901030050 58 291 0.0 1.0 0.00 0.00 0.00 78 1015.6
20260901024553 59 291 0.0 1.0 0.00 0.00 0.00 76 1015.4
20260901023100 61 291 0.0 0.0 0.00 0.00 0.00 74 1015.4
20260901021553 62 291 0.0 2.0 0.00 0.00 0.00 72 1015.4
20260901020050 63 271 0.0 2.0 0.00 0.00 0.00 69 1015.6
20260901014601 64 268 0.0 2.0 0.00 0.00 0.00 68 1015.6
20260901013057 66 268 0.0 2.0 0.00 0.00 0.00 66 1015.7